Venice, FL

1:10 PM EST on January 19, 2018 (GMT -0500)
Venice Municipal

Weather History for KVNC - September, 2013

Change the Weather History Date:

Thursday, September 19, 2013

  Actual Average Record
Temperature  
Mean Temperature 81 °F -  
Max Temperature 89 °F 90 °F 94 °F (1970)
Min Temperature 73 °F 72 °F 62 °F (1981)
Cooling Degree Days 16    
Growing Degree Days 31 (Base 50)    
Moisture  
Dew Point 74 °F    
Average Humidity 90    
Maximum Humidity 100    
Minimum Humidity 55    
Precipitation  
Precipitation 0.33 in - - ()
Sea Level Pressure  
Sea Level Pressure 30.01 in    
Wind  
Wind Speed 7 mph (ENE)    
Max Wind Speed 20 mph    
Max Gust Speed 32 mph    
Visibility 9 miles    
Events Rain    
Averages and records for this station are not official NWS values.
T = Trace of Precipitation, MM = Missing Value Source: NWS Daily Summary

Daily Weather History Graph

Daily Weather History Graph

Search for Another Location

Airport or City:

Trip Planner

Search our weather history database for the weather conditions in past years. The results will help you decide how hot, cold, wet, or windy it might be!

Date:

Astronomy

Sep. 19, 2013 Rise Set
Actual Time 7:17 AM EDT 7:29 PM EDT
Civil Twilight 6:53 AM EDT 7:52 PM EDT
Nautical Twilight 6:26 AM EDT 8:19 PM EDT
Astronomical Twilight 5:59 AM EDT 8:46 PM EDT
Moon 7:34 PM EDT 7:20 AM EDT
Length of Visible Light 12h 58m
Length of Day
12h 12m
Full, 100% of the Moon is Illuminated
Sep 19
Full
Sep 26
Last Quarter
Oct 4
New
Oct 11
First Quarter
Oct 18
Full

Hourly Weather History & Observations

Time (EDT) Temp. Heat Index Dew Point Humidity Pressure Visibility Wind Dir Wind Speed Gust Speed Precip Events Conditions
12:15 AM 73.4 °F - 73.4 °F 100% 30.02 in 10.0 mi ENE 9.2 mph - N/A   Partly Cloudy
12:35 AM 73.4 °F - 73.4 °F 100% 30.02 in 10.0 mi ENE 5.8 mph - N/A   Clear
12:55 AM 73.4 °F - 73.4 °F 100% 30.01 in 10.0 mi NE 6.9 mph - N/A   Clear
1:15 AM 73.4 °F - 73.4 °F 100% 30.01 in 10.0 mi ENE 6.9 mph - N/A   Clear
1:35 AM 73.4 °F - 73.4 °F 100% 30.00 in 10.0 mi East 8.1 mph - N/A   Clear
1:55 AM 73.4 °F - 73.4 °F 100% 30.00 in 10.0 mi ENE 5.8 mph - N/A   Clear
2:15 AM 73.4 °F - 73.4 °F 100% 30.00 in 10.0 mi NE 5.8 mph - N/A   Clear
2:35 AM 73.4 °F - 73.4 °F 100% 29.99 in 10.0 mi ENE 6.9 mph - N/A   Clear
2:55 AM 73.4 °F - 73.4 °F 100% 29.99 in 10.0 mi ENE 5.8 mph - N/A   Clear
3:15 AM 73.4 °F - 73.4 °F 100% 29.98 in 10.0 mi NE 6.9 mph - N/A   Clear
3:35 AM 73.4 °F - 73.4 °F 100% 29.97 in 10.0 mi NE 10.4 mph - N/A   Clear
3:55 AM 73.4 °F - 73.4 °F 100% 29.97 in 10.0 mi NE 9.2 mph - N/A   Clear
4:15 AM 73.4 °F - 73.4 °F 100% 29.97 in 10.0 mi ENE 8.1 mph - N/A   Clear
4:35 AM 73.4 °F - 73.4 °F 100% 29.97 in 10.0 mi ENE 5.8 mph - N/A   Clear
4:55 AM 73.4 °F - 73.4 °F 100% 29.97 in 10.0 mi NE 6.9 mph - N/A   Clear
5:15 AM 73.4 °F - 73.4 °F 100% 29.98 in 10.0 mi NE 8.1 mph - N/A   Clear
5:35 AM 73.4 °F - 73.4 °F 100% 29.98 in 9.0 mi NE 6.9 mph - N/A   Clear
5:55 AM 73.4 °F - 73.4 °F 100% 29.99 in 10.0 mi ENE 6.9 mph - N/A   Clear
6:15 AM 73.4 °F - 73.4 °F 100% 29.99 in 10.0 mi ENE 6.9 mph - N/A   Clear
6:35 AM 73.4 °F - 71.6 °F 94% 30.00 in 10.0 mi East 5.8 mph - N/A   Clear
6:55 AM 73.4 °F - 71.6 °F 94% 30.00 in 10.0 mi East 5.8 mph - N/A   Clear
7:15 AM 73.4 °F - 71.6 °F 94% 30.00 in 10.0 mi ENE 4.6 mph - N/A   Clear
7:35 AM 73.4 °F - 71.6 °F 94% 30.00 in 8.0 mi ENE 6.9 mph - N/A   Clear
7:55 AM 73.4 °F - 73.4 °F 100% 30.00 in 10.0 mi East 5.8 mph - N/A   Clear
8:15 AM 73.4 °F - 73.4 °F 100% 30.01 in 9.0 mi ENE 6.9 mph - N/A   Clear
8:35 AM 75.2 °F - 73.4 °F 94% 30.01 in 10.0 mi ENE 5.8 mph - N/A   Clear
8:55 AM 77.0 °F - 73.4 °F 89% 30.02 in 10.0 mi ENE 8.1 mph - N/A   Clear
9:15 AM 77.0 °F - 75.2 °F 94% 30.03 in 10.0 mi ENE 9.2 mph - N/A   Clear
9:35 AM 78.8 °F - 75.2 °F 89% 30.03 in 10.0 mi ENE 6.9 mph - N/A   Clear
9:55 AM 80.6 °F 86.2 °F 75.2 °F 84% 30.03 in 10.0 mi East 9.2 mph - N/A   Clear
10:15 AM 80.6 °F 86.2 °F 75.2 °F 84% 30.04 in 9.0 mi East 9.2 mph - N/A   Partly Cloudy
10:35 AM 82.4 °F 89.5 °F 75.2 °F 79% 30.04 in 10.0 mi East 9.2 mph - N/A   Partly Cloudy
10:55 AM 82.4 °F 89.5 °F 75.2 °F 79% 30.05 in 10.0 mi East 10.4 mph - N/A   Partly Cloudy
11:15 AM 84.2 °F 92.3 °F 75.2 °F 74% 30.05 in 10.0 mi East 9.2 mph - N/A   Scattered Clouds
11:35 AM 84.2 °F 92.3 °F 75.2 °F 74% 30.05 in 10.0 mi East 10.4 mph - N/A Rain Light Rain
11:55 AM 86.0 °F 95.1 °F 75.2 °F 70% 30.05 in 10.0 mi East 6.9 mph - N/A   Partly Cloudy
12:15 PM 84.2 °F 90.9 °F 73.4 °F 70% 30.04 in 10.0 mi East 5.8 mph - N/A   Partly Cloudy
12:35 PM 86.0 °F 95.1 °F 75.2 °F 70% 30.04 in 10.0 mi East 8.1 mph - N/A   Scattered Clouds
12:55 PM 84.2 °F 92.3 °F 75.2 °F 74% 30.03 in 10.0 mi NE 6.9 mph - N/A   Mostly Cloudy
1:15 PM 84.2 °F 90.9 °F 73.4 °F 70% 30.02 in 10.0 mi NE 8.1 mph - N/A   Partly Cloudy
1:35 PM 84.2 °F 90.9 °F 73.4 °F 70% 30.01 in 10.0 mi ENE 4.6 mph - N/A   Clear
1:55 PM 86.0 °F 93.4 °F 73.4 °F 66% 30.00 in 10.0 mi NE 6.9 mph - N/A   Mostly Cloudy
2:15 PM 86.0 °F 93.4 °F 73.4 °F 66% 30.00 in 10.0 mi NE 3.5 mph - N/A   Scattered Clouds
2:35 PM 86.0 °F 93.4 °F 73.4 °F 66% 29.99 in 10.0 mi SSE 4.6 mph - N/A   Scattered Clouds
2:55 PM 84.2 °F 92.3 °F 75.2 °F 74% 29.99 in 8.0 mi NE 3.5 mph - N/A Rain Light Rain
3:15 PM 84.2 °F 92.3 °F 75.2 °F 74% 29.98 in 10.0 mi East 5.8 mph - N/A   Scattered Clouds
3:35 PM 86.0 °F 93.4 °F 73.4 °F 66% 29.97 in 10.0 mi NE 4.6 mph - N/A   Clear
3:55 PM 86.0 °F 93.4 °F 73.4 °F 66% 29.97 in 10.0 mi ENE 8.1 mph - N/A   Scattered Clouds
4:15 PM 89.6 °F 96.2 °F 71.6 °F 55% 29.97 in 10.0 mi ENE 10.4 mph - N/A   Partly Cloudy
4:35 PM 82.4 °F 87.2 °F 71.6 °F 70% 29.99 in 5.0 mi East 19.6 mph 32.2 mph N/A   Haze
4:55 PM 73.4 °F - 71.6 °F 94% 30.00 in 0.5 mi NE 11.5 mph - 0.16 in Rain Heavy Rain
5:15 PM 73.4 °F - 71.6 °F 94% 30.00 in 1.5 mi ENE 5.8 mph - 0.08 in Rain Heavy Rain
5:35 PM 75.2 °F - 73.4 °F 94% 30.00 in 2.0 mi ESE 6.9 mph - 0.13 in Rain Light Rain
5:55 PM 75.2 °F - 73.4 °F 94% 30.01 in 9.0 mi ESE 4.6 mph - 0.13 in   Scattered Clouds
6:15 PM 75.2 °F - 75.2 °F 100% 30.00 in 10.0 mi ESE 3.5 mph - N/A   Scattered Clouds
6:35 PM 75.2 °F - 75.2 °F 100% 30.00 in 8.0 mi ESE 3.5 mph - 0.01 in Rain Light Rain
6:55 PM 75.2 °F - 73.4 °F 94% 29.99 in 10.0 mi East 3.5 mph - 0.02 in   Partly Cloudy
7:15 PM 75.2 °F - 75.2 °F 100% 30.02 in 5.0 mi NW 5.8 mph - 0.01 in Rain Heavy Rain
7:35 PM 75.2 °F - 73.4 °F 94% 30.02 in 10.0 mi Calm Calm - 0.02 in Rain Light Rain
7:55 PM 75.2 °F - 73.4 °F 94% 30.01 in 10.0 mi Calm Calm - 0.02 in   Mostly Cloudy
8:15 PM 75.2 °F - 75.2 °F 100% 30.01 in 10.0 mi ENE 3.5 mph - N/A   Partly Cloudy
8:35 PM 75.2 °F - 73.4 °F 94% 30.00 in 10.0 mi East 5.8 mph - N/A   Partly Cloudy
8:55 PM 75.2 °F - 73.4 °F 94% 30.00 in 10.0 mi ENE 5.8 mph - N/A   Clear
9:15 PM 75.2 °F - 73.4 °F 94% 30.01 in 10.0 mi East 5.8 mph - N/A   Clear
9:35 PM 75.2 °F - 73.4 °F 94% 30.02 in 10.0 mi NE 6.9 mph - N/A   Clear
9:55 PM 75.2 °F - 73.4 °F 94% 30.02 in 10.0 mi East 4.6 mph - N/A   Partly Cloudy
10:15 PM 75.2 °F - 73.4 °F 94% 30.04 in 10.0 mi East 4.6 mph - N/A   Partly Cloudy
10:35 PM 75.2 °F - 73.4 °F 94% 30.03 in 10.0 mi East 6.9 mph - N/A   Clear
10:55 PM 75.2 °F - 75.2 °F 100% 30.03 in 10.0 mi ESE 5.8 mph - N/A   Partly Cloudy
11:15 PM 75.2 °F - 75.2 °F 100% 30.03 in 10.0 mi East 5.8 mph - N/A   Partly Cloudy
11:35 PM 75.2 °F - 73.4 °F 94% 30.02 in 10.0 mi East 5.8 mph - N/A   Clear
11:55 PM 75.2 °F - 73.4 °F 94% 30.03 in 10.0 mi ENE 4.6 mph - N/A   Clear